TimeCST,TemperatureF,Dew PointF,Humidity,Sea Level PressureIn,VisibilityMPH,Wind Direction,Wind SpeedMPH,Gust SpeedMPH,PrecipitationIn,Events,Conditions,WindDirDegrees,DateUTC
12:15 AM,35.6,35.6,100,29.93,1.2,South,11.5,-,N/A,,Overcast,170,2012-12-03 06:15:00
12:35 AM,35.6,35.6,100,29.93,1.2,SSE,9.2,-,N/A,,Overcast,160,2012-12-03 06:35:00
12:55 AM,35.6,35.6,100,29.91,1.2,SSE,8.1,-,N/A,,Overcast,160,2012-12-03 06:55:00
1:15 AM,35.6,35.6,100,29.90,1.0,SSE,8.1,-,N/A,,Overcast,150,2012-12-03 07:15:00
1:35 AM,35.6,35.6,100,29.90,1.0,SSE,8.1,-,N/A,,Overcast,160,2012-12-03 07:35:00
1:55 AM,35.6,35.6,100,29.91,0.8,SSE,8.1,-,N/A,,Overcast,160,2012-12-03 07:55:00
2:15 AM,35.6,35.6,100,29.91,0.5,SSE,8.1,-,N/A,Fog,Fog,160,2012-12-03 08:15:00
2:35 AM,35.6,35.6,100,29.89,0.5,SSE,10.4,-,N/A,Fog,Fog,160,2012-12-03 08:35:00
2:55 AM,37.4,37.4,100,29.89,0.8,South,8.1,16.1,N/A,,Overcast,170,2012-12-03 08:55:00
3:15 AM,37.4,37.4,100,29.88,0.8,South,9.2,-,N/A,,Overcast,170,2012-12-03 09:15:00
3:35 AM,37.4,37.4,100,29.86,0.8,South,8.1,-,N/A,,Overcast,170,2012-12-03 09:35:00
3:55 AM,37.4,37.4,100,29.85,1.0,SSE,8.1,-,N/A,,Overcast,160,2012-12-03 09:55:00
4:15 AM,39.2,37.4,93,29.83,0.5,SSE,10.4,-,N/A,Fog,Fog,150,2012-12-03 10:15:00
4:35 AM,41.0,39.2,93,29.83,0.8,South,9.2,17.3,N/A,,Overcast,170,2012-12-03 10:35:00
4:55 AM,41.0,39.2,93,29.83,1.8,South,9.2,17.3,N/A,,Overcast,180,2012-12-03 10:55:00
5:15 AM,41.0,39.2,93,29.82,3.0,South,12.7,21.9,N/A,,Overcast,180,2012-12-03 11:15:00
5:35 AM,41.0,39.2,93,29.82,2.5,South,11.5,-,N/A,,Overcast,170,2012-12-03 11:35:00
5:55 AM,41.0,39.2,93,29.81,1.0,South,9.2,-,N/A,,Overcast,170,2012-12-03 11:55:00
6:15 AM,41.0,39.2,93,29.81,0.8,South,8.1,-,N/A,,Overcast,170,2012-12-03 12:15:00
6:35 AM,41.0,39.2,93,29.79,0.8,SSE,10.4,-,N/A,,Overcast,160,2012-12-03 12:35:00
6:55 AM,41.0,39.2,93,29.78,0.8,SSE,9.2,-,N/A,,Overcast,160,2012-12-03 12:55:00
7:15 AM,41.0,41.0,100,29.77,0.8,South,12.7,18.4,N/A,,Overcast,170,2012-12-03 13:15:00
7:35 AM,42.8,41.0,93,29.77,0.8,SSE,10.4,-,N/A,,Overcast,160,2012-12-03 13:35:00
7:55 AM,42.8,41.0,93,29.76,0.5,South,11.5,18.4,N/A,Fog,Fog,170,2012-12-03 13:55:00
8:15 AM,42.8,41.0,93,29.74,0.5,SSE,10.4,17.3,N/A,Fog,Fog,150,2012-12-03 14:15:00
8:35 AM,42.8,41.0,93,29.74,0.5,SSE,8.1,-,N/A,Fog,Fog,150,2012-12-03 14:35:00
8:55 AM,42.8,41.0,93,29.72,0.5,SSE,11.5,-,N/A,Fog,Fog,150,2012-12-03 14:55:00
9:15 AM,42.8,41.0,93,29.72,0.5,SSE,10.4,17.3,N/A,Fog,Fog,150,2012-12-03 15:15:00
9:35 AM,42.8,41.0,93,29.70,0.5,SSE,12.7,-,N/A,Fog,Fog,150,2012-12-03 15:35:00
9:55 AM,42.8,42.8,100,29.69,0.5,SSE,13.8,21.9,N/A,Fog,Fog,150,2012-12-03 15:55:00
10:15 AM,42.8,42.8,100,29.68,0.5,SSE,10.4,16.1,N/A,Fog,Fog,160,2012-12-03 16:15:00
10:35 AM,44.6,42.8,93,29.68,0.5,SSE,9.2,-,N/A,Fog,Fog,150,2012-12-03 16:35:00
10:55 AM,44.6,42.8,93,29.65,0.5,SSE,11.5,17.3,N/A,Fog,Fog,160,2012-12-03 16:55:00
11:35 AM,46.4,44.6,93,29.62,0.5,South,15.0,20.7,N/A,Fog,Fog,170,2012-12-03 17:35:00
11:55 AM,48.2,46.4,93,29.61,0.8,South,11.5,18.4,N/A,,Overcast,170,2012-12-03 17:55:00
12:15 PM,48.2,46.4,93,29.60,0.8,South,15.0,21.9,N/A,Rain,Light Rain,180,2012-12-03 18:15:00
12:35 PM,50.0,50.0,100,29.59,1.2,South,12.7,18.4,N/A,,Light Drizzle,170,2012-12-03 18:35:00
12:55 PM,51.8,50.0,94,29.58,1.2,South,13.8,19.6,N/A,,Overcast,180,2012-12-03 18:55:00
1:15 PM,51.8,50.0,94,29.57,1.5,South,16.1,19.6,N/A,,Light Drizzle,190,2012-12-03 19:15:00
1:35 PM,51.8,50.0,94,29.56,1.8,South,12.7,20.7,N/A,,Drizzle,180,2012-12-03 19:35:00
1:55 PM,51.8,50.0,94,29.55,2.5,South,11.5,18.4,N/A,,Light Drizzle,180,2012-12-03 19:55:00
2:15 PM,51.8,50.0,94,29.55,2.5,South,13.8,-,N/A,,Light Drizzle,190,2012-12-03 20:15:00
2:35 PM,51.8,50.0,94,29.54,2.5,South,11.5,-,N/A,,Overcast,190,2012-12-03 20:35:00
2:55 PM,51.8,50.0,94,29.55,2.5,South,10.4,17.3,N/A,Rain,Light Rain,190,2012-12-03 20:55:00
3:15 PM,51.8,50.0,94,29.54,3.0,South,11.5,-,N/A,,Overcast,190,2012-12-03 21:15:00
3:35 PM,51.8,50.0,94,29.54,3.0,SSW,12.7,17.3,N/A,,Overcast,200,2012-12-03 21:35:00
3:55 PM,51.8,50.0,94,29.55,3.0,SSW,10.4,-,N/A,,Drizzle,200,2012-12-03 21:55:00
4:15 PM,53.6,51.8,94,29.55,4.0,SSW,11.5,16.1,N/A,,Overcast,210,2012-12-03 22:15:00
4:35 PM,53.6,51.8,94,29.55,5.0,SSW,10.4,-,N/A,Rain,Light Rain,210,2012-12-03 22:35:00
4:55 PM,55.4,53.6,94,29.55,5.0,SSW,10.4,18.4,N/A,,Overcast,210,2012-12-03 22:55:00
5:15 PM,55.4,53.6,94,29.58,5.0,West,18.4,24.2,N/A,Rain,Light Rain,280,2012-12-03 23:15:00
5:35 PM,51.8,46.4,82,29.59,7.0,West,13.8,24.2,N/A,,Mostly Cloudy,270,2012-12-03 23:35:00
5:55 PM,51.8,48.2,88,29.60,7.0,West,11.5,17.3,N/A,,Clear,260,2012-12-03 23:55:00
6:15 PM,51.8,48.2,88,29.62,7.0,West,8.1,-,N/A,,Mostly Cloudy,260,2012-12-04 00:15:00
6:35 PM,51.8,46.4,82,29.62,7.0,West,10.4,17.3,N/A,,Overcast,280,2012-12-04 00:35:00
6:55 PM,51.8,46.4,82,29.64,7.0,West,9.2,-,N/A,,Overcast,280,2012-12-04 00:55:00
7:15 PM,48.2,44.6,87,29.65,10.0,West,10.4,21.9,N/A,,Mostly Cloudy,280,2012-12-04 01:15:00
7:35 PM,46.4,42.8,87,29.66,10.0,West,8.1,16.1,N/A,,Scattered Clouds,280,2012-12-04 01:35:00
7:55 PM,44.6,41.0,87,29.68,10.0,West,10.4,18.4,N/A,,Clear,270,2012-12-04 01:55:00
8:15 PM,44.6,41.0,87,29.69,10.0,West,11.5,25.3,N/A,,Mostly Cloudy,280,2012-12-04 02:15:00
8:35 PM,44.6,39.2,81,29.70,10.0,West,10.4,19.6,N/A,,Scattered Clouds,280,2012-12-04 02:35:00
8:55 PM,42.8,37.4,81,29.71,10.0,West,11.5,21.9,N/A,,Clear,280,2012-12-04 02:55:00
9:15 PM,42.8,37.4,81,29.72,10.0,West,9.2,-,N/A,,Clear,280,2012-12-04 03:15:00
9:35 PM,41.0,35.6,81,29.72,10.0,West,8.1,16.1,N/A,,Clear,270,2012-12-04 03:35:00
9:55 PM,41.0,35.6,81,29.72,10.0,West,8.1,-,N/A,,Clear,260,2012-12-04 03:55:00
10:15 PM,41.0,35.6,81,29.73,10.0,WSW,6.9,-,N/A,,Clear,250,2012-12-04 04:15:00
10:55 PM,41.0,35.6,81,29.74,10.0,West,11.5,17.3,N/A,,Clear,260,2012-12-04 04:55:00
11:15 PM,41.0,33.8,76,29.75,10.0,WSW,11.5,-,N/A,,Clear,250,2012-12-04 05:15:00
11:35 PM,37.4,32.0,81,29.76,10.0,WSW,9.2,18.4,N/A,,Clear,250,2012-12-04 05:35:00
11:55 PM,37.4,32.0,81,29.76,10.0,West,11.5,17.3,N/A,,Clear,260,2012-12-04 05:55:00